Hourly Data Report for July 25, 2021

WINNIPEG A CS
MANITOBA
Current Station Operator: ECCC - MSC

49°55'00.000" N
97°14'58.000" W
238.70 m
502S001
71849
XWG

Download Data

Hourly Data (July 2021)
Hourly Data Report for July 25, 2021
TIME
LST
Temp Definition
°C
Dew Point Definition
°C
Rel Hum Definition
%
Precip. Amount Definition
mm

Wind Dir Definition
10's deg

Wind Spd Definition
km/h
Visibility Definition
km
Stn Press Definition
kPa
Hmdx Definition


Wind Chill Definition


Weather Definition


00:00 18.8 8.7 52 0.0 26 17   98.19     LegendNANA
01:00 17.9 9.1 56 0.0 26 18   98.20     LegendNANA
02:00 17.1 8.7 58 0.0 26 19   98.21     LegendNANA
03:00 15.7 8.7 63 0.0 26 17   98.23     LegendNANA
04:00 14.9 8.5 65 0.0 26 17   98.28     LegendNANA
05:00 13.7 8.5 70 0.0 26 17   98.32     LegendNANA
06:00 15.4 8.9 65 0.0 27 13   98.36     LegendNANA
07:00 17.8 9.1 57 0.0 27 16   98.40     LegendNANA
08:00 20.9 9.7 49 0.0 29 14   98.41     LegendNANA
09:00 23.8 10.0 42 0.0 27 17   98.42 25   LegendNANA
10:00 26.1 8.4 33 0.0 29 18   98.43 27   LegendNANA
11:00 27.6 8.2 29 0.0 30 20   98.42 28   LegendNANA
12:00 29.3 6.6 24 0.0 30 28   98.42 29   LegendNANA
13:00 29.2 4.7 21 0.0 29 30   98.40 28   LegendNANA
14:00 29.8 5.2 21 0.0 31 21   98.40 29   LegendNANA
15:00 30.1 5.6 21 0.0 33 21   98.37 30   LegendNANA
16:00 30.1 5.9 22 0.0 32 17   98.36 30   LegendNANA
17:00 29.6 5.9 22 0.0 32 13   98.33 29   LegendNANA
18:00 29.0 5.7 23 0.0 28 18   98.31 29   LegendNANA
19:00 26.5 8.0 31 0.0 32 11   98.30 27   LegendNANA
20:00 21.9 10.0 47 0.0 31 7   98.34     LegendNANA
21:00 20.2 9.8 51 0.0 30 7   98.37     LegendNANA
22:00 19.6 8.9 50 0.0 1 4   98.41     LegendNANA
23:00 17.1 8.9 58 0.0 33 5   98.41     LegendNANA

Notes on Data Quality.

Legend

  • E = Estimated
  • M = Missing
  • NA = Not Available*
  • [empty] = Indicates an unobserved value
Date modified: